Regional Weather Roundup
Issued by NWS

Home | Current Version | Previous Version | Graphics & Text | Print | Product List | Glossary On
Versions: 1 2 3 4 5 6 7 8 9 10 11 12 13 14 15 16 17 18 19 20 21 22 23 24 25 26 27 28 29 30 31 32 33 34 35 36 37 38 39 40 41 42 43 44 45 46 47 48 49 50
000
ASUS45 KBOI 020710
RWRID

IDAHO REGIONAL WEATHER ROUNDUP
NATIONAL WEATHER SERVICE BOISE ID
1200 AM MST FRI DEC 02 2016

NOTE: "FAIR" INDICATES FEW OR NO CLOUDS BELOW 12000 FEET
WITH NO SIGNIFICANT WEATHER AND/OR OBSTRUCTIONS TO VISIBILITY

IDZ012-014-020800-
SOUTHWEST IDAHO


CITY           SKY/WX    TMP DP  RH WIND       PRES   REMARKS
BOISE          CLEAR     29  25  85 W6        30.26R WCI  23
CALDWELL       CLEAR     25  23  92 SW6       30.30S WCI  18
MOUNTAIN HOME  CLEAR     26  25  94 NW12      30.23R WCI  16
$$

IDZ016-017-020800-
SOUTHCENTRAL IDAHO


CITY           SKY/WX    TMP DP  RH WIND       PRES   REMARKS
BURLEY         PTCLDY    25  21  85 SW7       30.18R WCI  17
JEROME         PTCLDY    23  22  96 S6        30.19R WCI  16
TWIN FALLS     CLEAR     23  20  88 SW9       30.19R WCI  13
$$

IDZ019>023-020800-
SOUTHEAST IDAHO


CITY           SKY/WX    TMP DP  RH WIND       PRES   REMARKS
IDAHO FALLS    MOCLDY    15  12  88 NW3       30.17R
POCATELLO      CLOUDY    27  25  92 SW8       30.18R WCI  19
REXBURG        CLOUDY    23  21  92 S3        30.15R
$$

IDZ006-010-011-018-031-032-020800-
CENTRAL IDAHO MOUNTAINS


CITY           SKY/WX    TMP DP  RH WIND       PRES   REMARKS
MCCALL         CLEAR     17  14  88 CALM      30.19R
HAILEY         CLEAR     18  14  86 NW6       30.17R WCI   9
STANLEY          N/A     15  13  91 CALM      30.16R
SALMON         CLOUDY    27  21  80 CALM      30.20S
CHALLIS        CLOUDY    20  18  92 CALM      30.18R
$$

IDZ002-004-006-007-026-020800-
NORTHERN IDAHO


CITY           SKY/WX    TMP DP  RH WIND       PRES   REMARKS
LEWISTON       CLEAR     34  25  69 E3        30.32R
LOWELL           N/A     34  32  92 CALM      30.37R
COEUR D`ALENE  CLOUDY    31  31 100 CALM      30.27S FOG
MULLAN PASS    FOG       22  19  89 CALM      30.14R VSB 1
$$



USA.gov is the U.S. government's official web portal to all federal, state and local government web resources and services.